Location: Huntsville
(41.2590°N, 111.7678°W)
Time: 21:06:16
(UTC+00:00)

Vanguard 3 - Pass Details

Date: 13 June 2021
Orbit: 508 x 3261 km, 33.4° (Epoch: 28 July)

Event Time Altitude Azimuth Distance (km) Brightness Sun altitude
Rises 18:21:53 0° 255° (WSW) 3,220 10.1 67.4°
Reaches altitude 10° 18:23:57 10° 249° (WSW) 2,506 9.7 67.6°
Maximum altitude 18:29:41 48° 176° (S) 1,544 10.0 68.3°
Drops below altitude 10° 18:39:37 10° 107° (ESE) 4,290 11.2 69.4°
Sets 18:44:15 0° 103° (ESE) 5,762 11.7 69.9°
